JA1KWV-11 Weather Reports


Display with metric or nautical units.
time (UTC)temp
F
wind
direction
speed
MPH
gust
MPH
rain 1hr
in
rain 24hr
in
rain mn
in
humidity
%
barometer
mb
20260505071721 75 267 0.0 0.0 0.00 0.00 0.00 55 1019.2
20260505070921 75 267 0.0 0.0 0.00 0.00 0.00 55 1019.1
20260505070120 75 267 0.0 0.0 0.00 0.00 0.00 54 1018.8
20260505065320 75 267 0.0 0.0 0.00 0.00 0.00 54 1019.1
20260505064520 75 267 0.0 0.0 0.00 0.00 0.00 54 1019.0
20260505063719 75 267 0.0 0.0 0.00 0.00 0.00 54 1019.0
20260505062919 75 267 0.0 0.0 0.00 0.00 0.00 54 1018.8
20260505062119 75 267 0.0 0.0 0.00 0.00 0.00 54 1018.8
20260505061319 75 267 0.0 0.0 0.00 0.00 0.00 54 1018.8
20260505060519 75 267 0.0 0.0 0.00 0.00 0.00 55 1018.8
20260505055718 75 267 0.0 0.0 0.00 0.00 0.00 55 1018.6
20260505054918 75 267 0.0 0.0 0.00 0.00 0.00 56 1018.9
20260505054118 75 267 0.0 0.0 0.00 0.00 0.00 54 1018.6
20260505053318 75 267 0.0 0.0 0.00 0.00 0.00 55 1018.5
20260505052517 75 267 0.0 0.0 0.00 0.00 0.00 55 1018.3
20260505051717 75 267 0.0 0.0 0.00 0.00 0.00 55 1018.4
20260505050917 75 267 0.0 0.0 0.00 0.00 0.00 54 1018.6
20260505050117 75 267 0.0 0.0 0.00 0.00 0.00 54 1018.8
20260505041315 75 267 0.0 0.0 0.00 0.00 0.00 54 1019.0
20260505040515 75 267 0.0 0.0 0.00 0.00 0.00 55 1019.2
20260505035715 75 267 0.0 0.0 0.00 0.00 0.00 55 1019.1
20260505034915 75 267 0.0 0.0 0.00 0.00 0.00 54 1019.0
20260505034115 75 267 0.0 0.0 0.00 0.00 0.00 54 1019.1
20260505033314 75 267 0.0 0.0 0.00 0.00 0.00 55 1018.8
20260505032514 75 267 0.0 0.0 0.00 0.00 0.00 54 1019.2
20260505031714 75 267 0.0 0.0 0.00 0.00 0.00 54 1019.1
20260505030914 75 267 0.0 0.0 0.00 0.00 0.00 55 1019.2
20260505030113 75 267 0.0 0.0 0.00 0.00 0.00 55 1019.3
20260505025313 75 267 0.0 0.0 0.00 0.00 0.00 56 1019.1
20260505024513 75 267 0.0 0.0 0.00 0.00 0.00 55 1019.2
20260505023713 75 267 0.0 0.0 0.00 0.00 0.00 55 1019.3
20260505022913 75 267 0.0 0.0 0.00 0.00 0.00 55 1019.2
20260505022112 75 267 0.0 0.0 0.00 0.00 0.00 56 1019.5
20260505021312 75 267 0.0 0.0 0.00 0.00 0.00 55 1019.4
20260505020512 76 267 0.0 0.0 0.00 0.00 0.00 56 1019.6
20260505015712 76 267 0.0 0.0 0.00 0.00 0.00 55 1019.6
20260505014911 76 267 0.0 0.0 0.00 0.00 0.00 56 1019.2
20260505014111 76 267 0.0 0.0 0.00 0.00 0.00 56 1019.4
20260505013311 76 267 0.0 0.0 0.00 0.00 0.00 57 1019.4
20260505012511 76 267 0.0 0.0 0.00 0.00 0.00 57 1019.3
20260505011711 76 267 0.0 0.0 0.00 0.00 0.00 58 1019.2
20260505010910 76 267 0.0 0.0 0.00 0.00 0.00 59 1019.3
20260505010110 76 267 0.0 0.0 0.00 0.00 0.00 59 1019.4
20260505005310 76 267 0.0 0.0 0.00 0.00 0.00 59 1019.2
20260505004510 76 267 0.0 0.0 0.00 0.00 0.00 62 1019.5
20260505003710 76 267 0.0 0.0 0.00 0.00 0.00 63 1019.2
20260505002909 76 267 0.0 0.0 0.00 0.00 0.00 63 1019.6
20260505002109 76 267 0.0 0.0 0.00 0.00 0.00 64 1019.1
20260505001309 76 267 0.0 0.0 0.00 0.00 0.00 64 1019.3
20260505000509 76 267 0.0 0.0 0.00 0.00 0.00 66 1019.4
20260504235708 76 267 0.0 0.0 0.00 0.00 0.00 66 1019.3
20260504234908 76 267 0.0 0.0 0.00 0.00 0.00 66 1019.1
20260504234108 76 267 0.0 0.0 0.00 0.00 0.00 67 1019.1
20260504233308 76 267 0.0 0.0 0.00 0.00 0.00 67 1019.2
20260504232508 76 267 0.0 0.0 0.00 0.00 0.00 66 1019.3
20260504231707 76 267 0.0 0.0 0.00 0.00 0.00 66 1019.4
20260504230907 76 267 0.0 0.0 0.00 0.00 0.00 66 1019.3
20260504230107 75 267 0.0 0.0 0.00 0.00 0.00 65 1019.3
20260504225307 75 267 0.0 0.0 0.00 0.00 0.00 66 1019.1
20260504224506 75 267 0.0 0.0 0.00 0.00 0.00 66 1019.0
20260504223706 75 267 0.0 0.0 0.00 0.00 0.00 66 1019.1
20260504222906 75 267 0.0 0.0 0.00 0.00 0.00 66 1018.9
20260504222106 75 267 0.0 0.0 0.00 0.00 0.00 65 1018.9
20260504221306 75 267 0.0 0.0 0.00 0.00 0.00 65 1019.1
20260504220505 74 267 0.0 0.0 0.00 0.00 0.00 64 1018.8
20260504215705 74 267 0.0 0.0 0.00 0.00 0.00 64 1018.6
20260504214905 74 267 0.0 0.0 0.00 0.00 0.00 64 1018.6
20260504214105 74 267 0.0 0.0 0.00 0.00 0.00 63 1018.4
20260504213304 74 267 0.0 0.0 0.00 0.00 0.00 63 1018.5
20260504212504 74 267 0.0 0.0 0.00 0.00 0.00 63 1018.3
20260504211704 74 267 0.0 0.0 0.00 0.00 0.00 63 1018.1
20260504210904 74 267 0.0 0.0 0.00 0.00 0.00 63 1017.9
20260504210104 74 267 0.0 0.0 0.00 0.00 0.00 63 1017.9
20260504205304 74 267 0.0 0.0 0.00 0.00 0.00 63 1017.5
20260504204503 74 267 0.0 0.0 0.00 0.00 0.00 63 1017.2
20260504203703 74 267 0.0 0.0 0.00 0.00 0.00 63 1017.1
20260504202903 74 267 0.0 0.0 0.00 0.00 0.00 63 1016.6
20260504202103 74 267 0.0 0.0 0.00 0.00 0.00 63 1016.6
20260504201302 74 267 0.0 0.0 0.00 0.00 0.00 62 1016.4
20260504200502 74 267 0.0 0.0 0.00 0.00 0.00 62 1016.1
20260504195702 74 267 0.0 0.0 0.00 0.00 0.00 62 1015.9
20260504194902 74 267 0.0 0.0 0.00 0.00 0.00 62 1015.8
20260504194101 74 267 0.0 0.0 0.00 0.00 0.00 62 1015.9
20260504193301 74 267 0.0 0.0 0.00 0.00 0.00 62 1015.1
20260504192501 74 267 0.0 0.0 0.00 0.00 0.00 62 1014.9
20260504191701 74 267 0.0 0.0 0.00 0.00 0.00 63 1015.0
20260504190901 74 267 0.0 0.0 0.00 0.00 0.00 63 1014.8
20260504190100 74 267 0.0 0.0 0.00 0.00 0.00 62 1014.4
20260504185300 75 267 0.0 0.0 0.00 0.00 0.00 62 1014.4
20260504184500 75 267 0.0 0.0 0.00 0.00 0.00 63 1014.5
20260504183700 75 267 0.0 0.0 0.00 0.00 0.00 63 1014.1
20260504182859 75 267 0.0 0.0 0.00 0.00 0.00 63 1014.1
20260504182059 75 267 0.0 0.0 0.00 0.00 0.00 63 1014.2
20260504181259 75 267 0.0 0.0 0.00 0.00 0.00 63 1013.8
20260504180459 75 267 0.0 0.0 0.00 0.00 0.00 63 1013.7
20260504175659 75 267 0.0 0.0 0.00 0.00 0.00 63 1013.4
20260504174858 75 267 0.0 0.0 0.00 0.00 0.00 62 1013.1
20260504174058 75 267 0.0 0.0 0.00 0.00 0.00 63 1012.8
20260504173258 75 267 0.0 0.0 0.00 0.00 0.00 62 1012.8
20260504172458 75 267 0.0 0.0 0.00 0.00 0.00 63 1012.5
20260504171657 75 267 0.0 0.0 0.00 0.00 0.00 62 1012.5
20260504170857 75 267 0.0 0.0 0.00 0.00 0.00 63 1012.3
20260504150854 76 267 0.0 0.0 0.00 0.00 0.00 63 1009.6
20260504141252 76 267 0.0 0.0 0.00 0.00 0.00 63 1007.6
20260504140452 76 267 0.0 0.0 0.00 0.00 0.00 62 1007.6
20260504100446 77 267 0.0 0.0 0.00 0.00 0.00 66 1000.5
20260504081242 78 267 0.0 0.0 0.00 0.00 0.00 68 996.7
20260504080442 78 267 0.0 0.0 0.00 0.00 0.00 69 996.2